Manhattan, KS

10:21 AM CST on February 24, 2018 (GMT -0600)
Manhattan Regional

Weather History for KMHK - June, 2013

Change the Weather History Date:

Saturday, June 15, 2013

  Actual Average Record
Temperature  
Mean Temperature 78 °F 74 °F  
Max Temperature 85 °F 85 °F 103 °F (2016)
Min Temperature 71 °F 62 °F 50 °F (2001)
Degree Days  
Heating Degree Days 0 0  
Month to date heating degree days 9 8  
Since 1 June heating degree days 9 8  
Since 1 July heating degree days 5184 5312  
Cooling Degree Days 13 9  
Month to date cooling degree days 102 107  
Year to date cooling degree days 238 207  
Since 1 June cooling degree days 102 107  
Growing Degree Days 28 (Base 50)    
Moisture  
Dew Point 68 °F    
Average Humidity 76    
Maximum Humidity 93    
Minimum Humidity 58    
Precipitation  
Precipitation 0.15 in 0.20 in 0.85 in (2004)
Month to date precipitation 1.10 2.73  
Year to date precipitation 10.71 13.93  
Sea Level Pressure  
Sea Level Pressure 29.89 in    
Wind  
Wind Speed 7 mph (SSW)    
Max Wind Speed 21 mph    
Max Gust Speed 29 mph    
Visibility 9 miles    
Events Rain    
T = Trace of Precipitation, MM = Missing Value Source: NWS Daily Summary

Daily Weather History Graph

Daily Weather History Graph

Search for Another Location

Airport or City:

Trip Planner

Search our weather history database for the weather conditions in past years. The results will help you decide how hot, cold, wet, or windy it might be!

Date:

Astronomy

Jun. 15, 2013 Rise Set
Actual Time 6:00 AM CDT 8:54 PM CDT
Civil Twilight 5:27 AM CDT 9:26 PM CDT
Nautical Twilight 4:47 AM CDT 10:07 PM CDT
Astronomical Twilight 4:00 AM CDT 10:54 PM CDT
Moon 12:33 PM CDT (6/15) 12:33 AM CDT (6/15)
Length of Visible Light 15h 59m
Length of Day
14h 54m
Waxing Crescent, 40% of the Moon is Illuminated
Jun 15
Waxing Crescent
Jun 16
First Quarter
Jun 23
Full
Jun 29
Last Quarter
Jul 8
New

Hourly Weather History & Observations

Time (CDT) Temp. Heat Index Dew Point Humidity Pressure Visibility Wind Dir Wind Speed Gust Speed Precip Events Conditions
12:52 AM 81.0 °F 84.1 °F 69.1 °F 67% 29.85 in 10.0 mi SSW 11.5 mph - N/A   Clear
1:52 AM 79.0 °F - 69.1 °F 72% 29.85 in 10.0 mi SSW 12.7 mph - N/A   Partly Cloudy
2:52 AM 79.0 °F - 68.0 °F 69% 29.85 in 10.0 mi SW 12.7 mph - N/A   Mostly Cloudy
3:52 AM 78.1 °F - 66.9 °F 68% 29.83 in 10.0 mi SW 12.7 mph - N/A   Partly Cloudy
4:52 AM 78.1 °F - 64.9 °F 64% 29.85 in 10.0 mi SW 8.1 mph - N/A   Clear
5:52 AM 78.1 °F - 64.9 °F 64% 29.88 in 10.0 mi WSW 9.2 mph - N/A   Clear
6:52 AM 75.0 °F - 66.0 °F 73% 29.91 in 10.0 mi Calm Calm - N/A   Clear
7:52 AM 77.0 °F - 68.0 °F 74% 29.90 in 10.0 mi Calm Calm - N/A   Clear
8:52 AM 79.0 °F - 66.0 °F 64% 29.91 in 10.0 mi SW 4.6 mph - N/A   Clear
9:52 AM 81.0 °F 83.0 °F 66.0 °F 60% 29.91 in 10.0 mi SW 8.1 mph - N/A   Clear
10:52 AM 81.0 °F 83.0 °F 66.0 °F 60% 29.92 in 10.0 mi WSW 4.6 mph - N/A   Clear
11:52 AM 82.9 °F 85.0 °F 66.0 °F 56% 29.94 in 10.0 mi WSW 6.9 mph - N/A   Partly Cloudy
12:52 PM 77.0 °F - 69.1 °F 76% 29.94 in 4.0 mi West 5.8 mph - 0.03 in Rain Rain
1:33 PM 73.4 °F - 69.8 °F 88% 29.98 in 0.8 mi Variable 6.9 mph - 0.11 in Rain Heavy Rain
1:41 PM 73.4 °F - 69.8 °F 88% 29.97 in 2.5 mi WNW 3.5 mph - 0.11 in Rain Light Rain
1:48 PM 73.4 °F - 69.8 °F 88% 29.95 in 4.0 mi NW 4.6 mph - 0.12 in Rain Light Rain
1:52 PM 73.9 °F - 69.1 °F 85% 29.93 in 7.0 mi Calm Calm - 0.12 in Rain Light Rain
2:52 PM 77.0 °F - 68.0 °F 74% 29.89 in 10.0 mi SSE 3.5 mph - 0.00 in   Partly Cloudy
3:52 PM 80.1 °F 83.2 °F 70.0 °F 71% 29.87 in 10.0 mi ESE 6.9 mph - N/A   Mostly Cloudy
4:52 PM 81.0 °F 84.4 °F 70.0 °F 69% 29.86 in 10.0 mi SE 9.2 mph - N/A   Clear
5:52 PM 78.1 °F - 69.1 °F 74% 29.83 in 10.0 mi SSE 17.3 mph 24.2 mph N/A   Clear
6:52 PM 80.1 °F 83.6 °F 71.1 °F 74% 29.83 in 10.0 mi SSE 5.8 mph - N/A   Scattered Clouds
7:52 PM 79.0 °F - 70.0 °F 74% 29.84 in 10.0 mi SSE 6.9 mph - N/A   Partly Cloudy
8:52 PM 75.9 °F - 68.0 °F 76% 29.83 in 10.0 mi ESE 3.5 mph - N/A   Clear
9:52 PM 75.0 °F - 69.1 °F 82% 29.86 in 10.0 mi SE 5.8 mph - N/A   Partly Cloudy
10:52 PM 73.9 °F - 68.0 °F 82% 29.88 in 10.0 mi SSE 5.8 mph - N/A   Clear
11:33 PM 73.4 °F - 69.8 °F 88% 29.93 in 10.0 mi SSE 6.9 mph - N/A   Mostly Cloudy
11:52 PM 72.0 °F - 69.1 °F 91% 29.89 in 10.0 mi SE 4.6 mph - N/A   Mostly Cloudy